Location: Newark
(48.6676°N, 6.1917°E)
Time: 04:38:45
(UTC+00:00)

ISS - Visible Passes

Search period start: 10 December 2019 00:00
Search period end: 20 December 2019 00:00
Orbit: 411 x 421 km, 51.6° (Epoch: 10 December)

Date Brightness Start Highest point End Pass type
(mag) Time Alt. Az. Time Alt. Az. Time Alt. Az.
10 Dec -1.1 17:25:54 10° W 17:28:28 20° SW 17:31:02 10° S visible
11 Dec -1.7 16:37:09 10° W 16:40:09 30° SW 16:43:08 10° SSE visible
13 Dec -0.5 16:37:40 10° WSW 16:39:33 14° SW 16:41:24 10° S visible
